This is the latest recevied weather packets stored in our database for station/object W6SNO-1. If no packets are shown the sender has not sent any weather packets the latest 10 day(s).
| Time | Temp. | Humidity | Pressure | Rain* | Wind** | Luminosity | Snow |
|---|---|---|---|---|---|---|---|
| 1787768871 | 25° C | 55% | 1016.4 hPa | 0 mm | - | 671 W/m² | - |
| 1787768567 | 25° C | 54% | 1016.6 hPa | 0 mm | - | 659 W/m² | - |
| 1787768263 | 24.44° C | 55% | 1016.3 hPa | 0 mm | - | 651 W/m² | - |
| 1787767959 | 24.44° C | 56% | 1016.4 hPa | 0 mm | - | 643 W/m² | - |
| 1787767653 | 24.44° C | 58% | 1016.5 hPa | 0 mm | - | 628 W/m² | - |
| 1787767353 | 23.89° C | 61% | 1016.4 hPa | 0 mm | - | 611 W/m² | - |
| 1787767052 | 23.89° C | 61% | 1016.5 hPa | 0 mm | - | 611 W/m² | - |
| 1787766750 | 23.89° C | 60% | 1016.6 hPa | 0 mm | - | 603 W/m² | - |
| 1787766444 | 23.33° C | 61% | 1016.6 hPa | 0 mm | - | 588 W/m² | - |
| 1787766140 | 23.33° C | 61% | 1016.4 hPa | 0 mm | - | 578 W/m² | - |
| 1787765835 | 23.33° C | 62% | 1016.5 hPa | 0 mm | - | 565 W/m² | - |
| 1787765532 | 22.22° C | 64% | 1016.5 hPa | 0 mm | - | 548 W/m² | - |
| 1787765231 | 22.22° C | 66% | 1016.5 hPa | 0 mm | - | 540 W/m² | - |
| 1787764931 | 22.22° C | 66% | 1016.5 hPa | 0 mm | - | 526 W/m² | - |
| 1787764626 | 21.67° C | 67% | 1016.6 hPa | 0 mm | - | 510 W/m² | - |
| 1787764326 | 21.11° C | 69% | 1016.4 hPa | 0 mm | - | 503 W/m² | - |
| 1787764022 | 20.56° C | 71% | 1016.5 hPa | 0 mm | - | 485 W/m² | - |
| 1787763717 | 20° C | 73% | 1016.4 hPa | 0 mm | - | 455 W/m² | - |
| 1787763413 | 19.44° C | 73% | 1016.4 hPa | 0 mm | - | 136 W/m² | - |
| 1787763112 | 19.44° C | 74% | 1016.4 hPa | 0 mm | - | 103 W/m² | - |
| 1787762811 | 18.89° C | 75% | 1016.4 hPa | 0 mm | - | 60 W/m² | - |
| 1787762507 | 18.89° C | 76% | 1016.3 hPa | 0 mm | - | 43 W/m² | - |
| 1787762203 | 18.33° C | 78% | 1016.6 hPa | 0 mm | - | 74 W/m² | - |
| 1787761898 | 17.78° C | 79% | 1016.6 hPa | 0 mm | - | 42 W/m² | - |
| 1787761594 | 17.78° C | 81% | 1016.4 hPa | 0 mm | - | 41 W/m² | - |
* Rain latest hour (hover to see other rain measurements)
** Current wind speed in m/s (hover to see current wind gust speed)